カタログに戻る

CZ-6A DEB

運用中SSO
NORAD 54971·DEBRIS·🇨🇳 China

打ち上げ Nov 11, 2022 から Taiyuan Satellite Launch Center

Loading…

次のパス (今後24時間)

TLE

最新Source: Space-Track

元期: Sep 14, 2026, 11:02 UTC

1 54971U 22151TL  26257.46028498  .00000038  00000-0  48458-4 0  9994
2 54971  98.8880 250.0048 0067828 121.5489 239.2326 14.05827595196705

AllMySatでCZ-6A DEBをリアルタイム追跡

Download on the App Store